C2610 Weather Reports


time (UTC)temp
C
wind
direction
speed
KPH
gust
KPH
rain 1hr
cm
rain 24hr
cm
rain mn
cm
humidity
%
barometer
mb
20260505070005 11 0 0.0 0.0 0.00 0.00 0.00 86 1028.7
20260505064504 11 0 0.0 0.0 0.00 0.00 0.00 85 1028.5
20260505063003 12 141 0.0 3.2 0.00 0.00 0.00 83 1028.4
20260505060004 12 0 0.0 0.0 0.00 0.00 0.00 81 1028.0
20260505054504 12 140 0.0 1.6 0.00 0.00 0.00 79 1027.9
20260505041505 15 189 1.6 4.8 0.00 0.00 0.00 72 1027.1
20260505040004 15 196 0.0 1.6 0.00 0.00 0.00 72 1026.9
20260505033003 16 198 0.0 3.2 0.00 0.00 0.00 66 1026.5
20260505031503 17 201 0.0 3.2 0.00 0.00 0.00 63 1026.3
20260505023004 19 288 0.0 4.8 0.00 0.00 0.00 57 1026.0
20260505021503 20 296 1.6 6.4 0.00 0.00 0.00 56 1026.1
20260505020005 20 170 1.6 4.8 0.00 0.00 0.00 55 1026.2
20260505014504 20 310 3.2 8.0 0.00 0.00 0.00 53 1026.3
20260505013004 21 356 4.8 8.0 0.00 0.00 0.00 51 1026.5
20260505011504 22 332 4.8 12.9 0.00 0.00 0.00 49 1026.6
20260505010004 23 349 3.2 11.3 0.00 0.00 0.00 47 1026.7
20260505004503 24 318 4.8 12.9 0.00 0.00 0.00 45 1026.8
20260505003003 25 288 3.2 8.0 0.00 0.00 0.00 43 1026.8
20260505001503 24 308 3.2 8.0 0.00 0.00 0.00 42 1026.8
20260505000003 25 282 3.2 12.9 0.00 0.00 0.00 40 1026.7
20260504234504 25 325 3.2 8.0 0.00 0.00 0.00 40 1026.8
20260504233004 25 329 3.2 14.5 0.00 0.00 0.00 42 1026.7
20260504230004 24 69 1.6 4.8 0.00 0.00 0.00 47 1026.9
20260504224503 24 41 3.2 3.2 0.00 0.00 0.00 46 1027.0
20260504223004 24 76 3.2 4.8 0.00 0.00 0.00 45 1027.1
20260504220003 23 81 1.6 4.8 0.00 0.00 0.00 49 1027.3
20260504214504 22 61 1.6 8.0 0.00 0.00 0.00 50 1027.4
20260504213005 22 51 3.2 6.4 0.00 0.00 0.00 48 1027.6
20260504210005 22 36 1.6 4.8 0.00 0.00 0.00 48 1027.8
20260504204503 22 49 1.6 4.8 0.00 0.00 0.00 49 1027.9
20260504203003 21 60 1.6 4.8 0.00 0.00 0.00 50 1027.9
20260504201504 21 51 3.2 4.8 0.00 0.00 0.00 51 1027.9
20260504200004 21 80 1.6 4.8 0.00 0.00 0.00 51 1027.9
20260504193004 21 61 1.6 8.0 0.00 0.00 0.00 54 1028.0
20260504191503 21 66 1.6 6.4 0.00 0.00 0.00 51 1028.0
20260504190004 20 71 1.6 3.2 0.00 0.00 0.00 55 1028.0
20260504181503 18 72 3.2 4.8 0.00 0.00 0.00 56 1028.3
20260504180003 18 81 3.2 4.8 0.00 0.00 0.00 56 1028.1
20260504174504 18 59 3.2 6.4 0.00 0.00 0.00 55 1028.1
20260504173004 18 68 1.6 4.8 0.00 0.00 0.00 58 1028.1
20260504171504 18 61 3.2 8.0 0.00 0.00 0.00 56 1028.1
20260504081503 13 279 0.0 1.6 0.00 0.00 0.00 65 1026.3